KB9PMA-1 Weather Reports


time (UTC)temp
C
wind
direction
speed
KPH
gust
KPH
rain 1hr
cm
rain 24hr
cm
rain mn
cm
humidity
%
barometer
mb
20260504041800 10 94 3.2 6.4 0.00 0.33 0.00 81 1011.0
20260504041300 10 112 4.8 4.8 0.00 0.33 0.00 80 1011.1
20260504040800 10 91 1.6 11.3 0.00 0.33 0.00 81 1011.2
20260504040300 10 101 4.8 6.4 0.00 0.33 0.00 81 1011.2
20260504035801 10 29 4.8 6.4 0.00 0.33 0.00 81 1011.1
20260504035300 10 203 0.0 4.8 0.00 0.33 0.33 82 1011.2
20260504034800 10 85 3.2 4.8 0.00 0.33 0.33 81 1011.3
20260504034301 10 205 3.2 6.4 0.00 0.33 0.33 81 1011.4
20260504033800 10 201 1.6 4.8 0.00 0.33 0.33 80 1011.4
20260504033301 10 229 3.2 4.8 0.00 0.33 0.33 80 1011.5
20260504032800 10 180 1.6 11.3 0.00 0.33 0.33 80 1011.6
20260504032301 10 271 3.2 8.0 0.00 0.33 0.33 80 1011.6
20260504031801 11 196 0.0 6.4 0.00 0.33 0.33 80 1011.5
20260504031301 10 213 3.2 6.4 0.00 0.33 0.33 79 1011.4
20260504030801 11 222 6.4 8.0 0.00 0.33 0.33 80 1011.5
20260504030301 10 223 6.4 12.9 0.00 0.33 0.33 81 1011.5
20260504025801 11 171 0.0 6.4 0.00 0.33 0.33 81 1011.6
20260504025301 11 95 1.6 8.0 0.00 0.33 0.33 82 1011.6
20260504024801 11 95 3.2 4.8 0.00 0.33 0.33 82 1011.7
20260504024301 11 202 3.2 3.2 0.00 0.33 0.33 82 1011.7
20260504023801 11 201 1.6 8.0 0.00 0.33 0.33 82 1011.8
20260504023301 11 181 1.6 3.2 0.00 0.33 0.33 82 1011.8
20260504022801 11 189 0.0 3.2 0.00 0.33 0.33 81 1011.7
20260504022301 11 168 1.6 3.2 0.00 0.33 0.33 83 1011.7
20260504021801 11 171 1.6 4.8 0.00 0.33 0.33 84 1011.7
20260504021301 10 160 0.0 0.0 0.00 0.33 0.33 85 1011.8
20260504020801 10 160 0.0 0.0 0.00 0.33 0.33 85 1011.9
20260504020301 10 160 0.0 0.0 0.00 0.33 0.33 86 1011.9
20260504015801 10 160 0.0 0.0 0.00 0.33 0.33 86 1011.9
20260504015301 10 160 0.0 0.0 0.00 0.33 0.33 85 1011.9
20260504014801 10 160 0.0 0.0 0.00 0.33 0.33 86 1011.9
20260504014301 10 160 0.0 0.0 0.00 0.33 0.33 86 1012.0
20260504013801 10 160 0.0 0.0 0.00 0.33 0.33 86 1012.0
20260504013301 10 160 0.0 0.0 0.00 0.33 0.33 86 1011.9
20260504012801 10 160 0.0 0.0 0.00 0.33 0.33 85 1011.9
20260504012301 10 160 0.0 0.0 0.00 0.33 0.33 85 1011.9
20260504011801 10 160 0.0 0.0 0.00 0.33 0.33 85 1012.0
20260504011301 10 160 0.0 0.0 0.00 0.33 0.33 84 1012.0
20260504010801 10 160 0.0 0.0 0.00 0.33 0.33 83 1012.0
20260504010301 10 160 0.0 0.0 0.00 0.33 0.33 83 1012.0
20260504005801 10 160 0.0 0.0 0.00 0.33 0.33 83 1012.0
20260504005301 10 160 0.0 0.0 0.00 0.33 0.33 83 1012.1
20260504004801 11 160 0.0 0.0 0.00 0.33 0.33 82 1012.2
20260504004301 11 160 0.0 0.0 0.00 0.33 0.33 82 1012.1
20260504003801 11 160 0.0 1.6 0.00 0.33 0.33 83 1012.2
20260504003301 11 170 0.0 3.2 0.00 0.33 0.33 84 1012.2
20260504002801 11 180 0.0 0.0 0.00 0.33 0.33 82 1012.3
20260504002301 11 180 0.0 1.6 0.00 0.33 0.33 81 1012.2
20260504001801 11 43 0.0 3.2 0.00 0.33 0.33 80 1012.3
20260504001301 11 12 0.0 4.8 0.00 0.33 0.33 80 1012.3
20260504000801 11 50 0.0 4.8 0.00 0.33 0.33 80 1012.3
20260504000301 11 75 3.2 9.7 0.00 0.33 0.33 80 1012.3
20260503235801 11 97 1.6 3.2 0.00 0.33 0.33 82 1012.3
20260503235301 11 16 1.6 6.4 0.00 0.33 0.33 81 1012.4
20260503234801 11 167 0.0 0.0 0.00 0.33 0.33 81 1012.5
20260503234301 11 167 0.0 0.0 0.00 0.33 0.33 79 1012.5
20260503233801 11 167 0.0 0.0 0.00 0.33 0.33 79 1012.5
20260503233301 11 167 0.0 0.0 0.00 0.33 0.33 79 1012.5
20260503232801 11 167 0.0 0.0 0.00 0.33 0.33 78 1012.5
20260503232301 11 167 0.0 0.0 0.00 0.33 0.33 76 1012.5
20260503231801 11 167 0.0 0.0 0.00 0.33 0.33 78 1012.6
20260503231301 12 167 0.0 0.0 0.00 0.33 0.33 78 1012.5
20260503230801 11 167 0.0 4.8 0.00 0.33 0.33 77 1012.5
20260503230301 11 182 1.6 4.8 0.00 0.33 0.33 77 1012.6
20260503225801 11 196 1.6 4.8 0.00 0.33 0.33 76 1012.6
20260503225302 11 180 3.2 4.8 0.00 0.33 0.33 78 1012.7
20260503224801 11 178 1.6 6.4 0.00 0.33 0.33 79 1012.7
20260503224301 11 168 3.2 8.0 0.00 0.33 0.33 74 1012.7
20260503223801 11 139 1.6 8.0 0.00 0.33 0.33 78 1012.8
20260503223301 11 168 0.0 6.4 0.00 0.33 0.33 77 1012.8
20260503222801 11 174 3.2 8.0 0.00 0.33 0.33 78 1012.9
20260503222301 11 137 1.6 6.4 0.00 0.33 0.33 80 1012.8
20260503221801 11 171 1.6 8.0 0.00 0.33 0.33 82 1012.9
20260503221301 11 171 1.6 8.0 0.00 0.33 0.33 82 1012.9
20260503220801 11 198 3.2 4.8 0.00 0.33 0.33 84 1012.9
20260503220301 10 172 3.2 4.8 0.00 0.33 0.33 84 1012.9
20260503215801 10 178 4.8 6.4 0.00 0.33 0.33 84 1013.1
20260503215301 10 175 3.2 4.8 0.00 0.33 0.33 85 1013.1
20260503214801 10 180 4.8 6.4 0.00 0.33 0.33 87 1013.2
20260503214301 10 191 3.2 8.0 0.00 0.33 0.33 86 1013.2
20260503213801 10 106 0.0 1.6 0.00 0.33 0.33 88 1013.3
20260503213301 10 153 0.0 4.8 0.00 0.33 0.33 87 1013.4
20260503212801 10 137 1.6 6.4 0.00 0.33 0.33 89 1013.5
20260503212301 10 182 3.2 4.8 0.00 0.33 0.33 88 1013.7
20260503211801 10 167 1.6 3.2 0.00 0.33 0.33 89 1013.9
20260503211301 10 119 1.6 4.8 0.03 0.33 0.33 90 1014.0
20260503210801 10 205 1.6 3.2 0.05 0.33 0.33 91 1014.1
20260503210301 10 123 0.0 4.8 0.10 0.33 0.33 91 1014.2
20260503205801 10 201 3.2 4.8 0.15 0.33 0.33 92 1014.3
20260503205303 9 111 1.6 9.7 0.20 0.33 0.33 92 1014.5
20260503204801 9 106 4.8 6.4 0.23 0.33 0.33 93 1014.7
20260503204301 8 149 1.6 3.2 0.25 0.33 0.33 93 1014.8
20260503203801 8 174 1.6 3.2 0.28 0.33 0.33 93 1015.0
20260503203301 8 161 0.0 3.2 0.30 0.33 0.33 92 1015.2
20260503202801 8 153 0.0 0.0 0.33 0.33 0.33 92 1015.3
20260503202304 8 122 0.0 4.8 0.33 0.33 0.33 92 1015.4
20260503201801 8 136 0.0 0.0 0.33 0.33 0.33 91 1015.6
20260503201301 8 136 0.0 0.0 0.30 0.30 0.30 90 1015.8
20260503200801 8 136 0.0 4.8 0.28 0.28 0.28 90 1016.1
20260503200301 9 223 3.2 6.4 0.23 0.23 0.23 89 1016.4
20260503195801 9 327 0.0 0.0 0.18 0.18 0.18 87 1016.6
20260503195304 9 327 0.0 11.3 0.13 0.13 0.13 86 1016.8
20260503194801 9 306 1.6 9.7 0.10 0.10 0.10 85 1017.1
20260503194301 10 250 3.2 14.5 0.08 0.08 0.08 84 1017.1
20260503193801 10 203 9.7 24.1 0.05 0.05 0.05 83 1017.2
20260503193301 11 251 4.8 32.2 0.03 0.03 0.03 77 1017.0
20260503192801 11 219 9.7 38.6 0.00 0.00 0.00 73 1016.8
20260503192301 12 279 8.0 29.0 0.00 0.00 0.00 67 1016.7
20260503191801 12 219 9.7 25.7 0.00 0.00 0.00 64 1016.7
20260503191301 13 220 1.6 29.0 0.00 0.00 0.00 61 1016.5
20260503190802 13 274 8.0 45.1 0.00 0.00 0.00 57 1016.4
20260503190302 14 236 9.7 32.2 0.00 0.00 0.00 53 1016.4
20260503185802 15 232 6.4 16.1 0.00 0.00 0.00 49 1016.0
20260503185302 15 216 6.4 22.5 0.00 0.00 0.00 47 1016.0
20260503184802 15 219 6.4 24.1 0.00 0.00 0.00 47 1015.9
20260503184302 15 357 1.6 24.1 0.00 0.00 0.00 49 1015.9
20260503183802 15 358 6.4 17.7 0.00 0.00 0.00 48 1015.9
20260503183302 15 244 4.8 29.0 0.00 0.00 0.00 47 1016.0
20260503182802 15 265 1.6 24.1 0.00 0.00 0.00 49 1015.9
20260503182304 15 181 9.7 16.1 0.00 0.00 0.00 46 1015.9
20260503181802 15 306 4.8 16.1 0.00 0.00 0.00 47 1016.0
20260503181302 15 241 8.0 20.9 0.00 0.00 0.00 49 1016.1
20260503180802 15 7 8.0 29.0 0.00 0.00 0.00 47 1016.1
20260503180302 15 333 8.0 19.3 0.00 0.00 0.00 45 1016.4
20260503175802 15 277 17.7 17.7 0.00 0.00 0.00 47 1016.5
20260503175302 15 248 6.4 24.1 0.00 0.00 0.00 44 1016.5
20260503174802 15 358 12.9 22.5 0.00 0.00 0.00 44 1016.6
20260503174302 16 302 9.7 24.1 0.00 0.00 0.00 43 1016.6
20260503173802 16 226 9.7 20.9 0.00 0.00 0.00 43 1016.7
20260503173302 16 227 14.5 25.7 0.00 0.00 0.00 41 1016.7
20260503172802 16 28 12.9 35.4 0.00 0.00 0.00 45 1016.8
20260503172302 16 212 4.8 19.3 0.00 0.00 0.00 44 1016.9
20260503171802 16 305 3.2 17.7 0.00 0.00 0.00 42 1017.0
20260503171302 16 45 6.4 14.5 0.00 0.00 0.00 43 1017.0
20260503170802 16 241 6.4 19.3 0.00 0.00 0.00 42 1017.0
20260503170302 16 267 9.7 22.5 0.00 0.00 0.00 42 1017.1
20260503150802 13 239 9.7 27.4 0.00 0.00 0.00 50 1018.5
20260503150302 13 225 9.7 24.1 0.00 0.00 0.00 48 1018.3
20260503140302 12 330 4.8 27.4 0.00 0.00 0.00 57 1018.5
20260503131302 9 237 6.4 19.3 0.00 0.00 0.00 65 1018.6
20260503130802 8 247 9.7 14.5 0.00 0.00 0.00 65 1018.6
20260503130302 8 73 0.0 14.5 0.00 0.00 0.00 67 1018.6
20260503110802 2 236 0.0 0.0 0.00 0.00 0.00 90 1018.2
20260503110302 2 236 0.0 0.0 0.00 0.00 0.00 90 1018.2
20260503090303 2 216 0.0 0.0 0.00 0.00 0.00 90 1018.0
20260503081303 2 216 0.0 0.0 0.00 0.00 0.00 89 1018.1
20260503080803 2 216 0.0 0.0 0.00 0.00 0.00 88 1018.2
20260503080303 2 216 0.0 0.0 0.00 0.00 0.00 88 1018.2
20260503072803 2 216 0.0 0.0 0.00 0.00 0.00 88 1018.2
20260503072305 2 216 0.0 0.0 0.00 0.00 0.00 88 1018.2
20260503071803 2 216 0.0 0.0 0.00 0.00 0.00 87 1018.3
20260503071303 2 216 0.0 0.0 0.00 0.00 0.00 87 1018.3
20260503070803 2 216 0.0 0.0 0.00 0.00 0.00 86 1018.3
20260503070303 2 216 0.0 0.0 0.00 0.00 0.00 86 1018.4
20260503060303 2 216 0.0 0.0 0.00 0.00 0.00 92 1018.8
20260503054803 2 216 0.0 0.0 0.00 0.00 0.00 92 1018.9
20260503054303 2 216 0.0 0.0 0.00 0.00 0.00 93 1018.9
20260503053803 2 216 0.0 0.0 0.00 0.00 0.00 93 1019.0
20260503053303 2 216 0.0 0.0 0.00 0.00 0.00 93 1019.0
20260503052803 2 216 0.0 0.0 0.00 0.00 0.00 93 1019.0
20260503052305 2 216 0.0 0.0 0.00 0.00 0.00 92 1019.1
20260503051803 2 216 0.0 0.0 0.00 0.00 0.00 92 1019.1
20260503051303 2 216 0.0 0.0 0.00 0.00 0.00 93 1019.1
20260503050803 2 216 0.0 0.0 0.00 0.00 0.00 93 1019.2
20260503050303 2 216 0.0 0.0 0.00 0.00 0.00 92 1019.2
20260503045803 2 216 0.0 0.0 0.00 0.00 0.00 93 1019.3
20260503045305 2 216 0.0 0.0 0.00 0.00 0.00 92 1019.2
20260503044803 2 216 0.0 0.0 0.00 0.00 0.00 92 1019.2
20260503044303 2 216 0.0 0.0 0.00 0.00 0.00 92 1019.2
20260503043803 2 216 0.0 0.0 0.00 0.00 0.00 92 1019.3
20260503043303 2 216 0.0 0.0 0.00 0.00 0.00 91 1019.3
20260503042803 2 216 0.0 0.0 0.00 0.00 0.00 91 1019.3
20260503042305 2 216 0.0 0.0 0.00 0.00 0.00 91 1019.2